Location: Greenwich
(51.4790°N, 0.0090°E)
Time: 06:25:33
(UTC+01:00)

Tiros 1 - Pass Details

Date: 30 April 2024
Orbit: 624 x 657 km, 48.4° (Epoch: 25 May)

Event Time Altitude Azimuth Distance (km) Brightness Sun altitude
Rises 22:41:56 0° 247° (WSW) 2,952 10.7 -17.2°
Reaches altitude 10° 22:44:19 10° 243° (WSW) 2,038 9.8 -17.4°
Maximum altitude 22:48:52 52° 167° (SSE) 796 7.2 -17.8°
Enters shadow 22:51:09 27° 104° (ESE) 1,233 8.2 -18.0°
